TimeAKST,TemperatureF,Dew PointF,Humidity,Sea Level PressureIn,VisibilityMPH,Wind Direction,Wind SpeedMPH,Gust SpeedMPH,PrecipitationIn,Events,Conditions,WindDirDegrees,DateUTC
12:53 AM,39.0,37.9,96,29.71,10.0,SSE,12.7,21.9,0.00,Rain,Light Rain,150,2013-02-20 09:53:00
1:19 AM,39.2,39.2,100,29.71,7.0,SE,15.0,21.9,0.05,Rain,Rain,140,2013-02-20 10:19:00
1:53 AM,39.0,39.0,100,29.70,9.0,SE,16.1,27.6,0.12,Rain,Light Rain,140,2013-02-20 10:53:00
2:50 AM,39.2,37.4,93,29.66,10.0,SE,16.1,25.3,0.01,Rain,Light Rain,140,2013-02-20 11:50:00
3:53 AM,37.9,37.0,97,29.65,9.0,SE,19.6,-,0.05,Rain,Light Rain,130,2013-02-20 12:53:00
4:23 AM,37.4,37.4,100,29.65,7.0,SSE,11.5,-,0.08,Rain,Rain,150,2013-02-20 13:23:00
4:53 AM,37.0,37.0,100,29.65,6.0,SE,13.8,25.3,0.15,Rain,Rain,140,2013-02-20 13:53:00
5:14 AM,37.4,37.4,100,29.65,6.0,SE,19.6,26.5,0.04,Rain,Rain,140,2013-02-20 14:14:00
5:53 AM,37.9,37.9,100,29.64,5.0,SE,16.1,21.9,0.13,Rain,Rain,140,2013-02-20 14:53:00
6:05 AM,37.4,35.6,93,29.64,5.0,SE,12.7,20.7,0.04,Rain,Rain,140,2013-02-20 15:05:00
6:53 AM,36.0,36.0,100,29.64,4.0,SSE,16.1,21.9,0.20,Rain,Rain,150,2013-02-20 15:53:00
7:53 AM,36.0,36.0,100,29.66,7.0,SSW,3.5,-,0.09,Rain,Light Rain,200,2013-02-20 16:53:00
7:56 AM,35.6,35.6,100,29.65,8.0,South,3.5,-,0.00,Rain,Light Rain,190,2013-02-20 16:56:00
8:53 AM,37.0,37.0,100,29.68,10.0,ESE,4.6,-,0.00,,Mostly Cloudy,120,2013-02-20 17:53:00
9:53 AM,37.9,37.9,100,29.69,10.0,SE,6.9,-,N/A,,Mostly Cloudy,130,2013-02-20 18:53:00
10:53 AM,41.0,39.0,93,29.71,10.0,SE,8.1,-,N/A,,Overcast,130,2013-02-20 19:53:00
11:53 AM,43.0,36.0,76,29.70,10.0,SE,11.5,-,N/A,,Scattered Clouds,130,2013-02-20 20:53:00
12:51 PM,42.8,35.6,76,29.68,10.0,SSE,8.1,-,0.00,Rain,Light Rain,150,2013-02-20 21:51:00
12:53 PM,42.1,35.1,76,29.68,10.0,SE,6.9,-,0.00,,Overcast,130,2013-02-20 21:53:00
1:53 PM,41.0,39.0,93,29.68,10.0,SE,8.1,-,0.02,,Overcast,140,2013-02-20 22:53:00
2:53 PM,39.0,37.0,93,29.66,10.0,SSE,5.8,-,0.00,,Overcast,150,2013-02-20 23:53:00
3:53 PM,39.0,35.1,86,29.63,9.0,SE,8.1,-,0.01,Rain,Light Rain,130,2013-02-21 00:53:00
4:53 PM,36.0,36.0,100,29.60,4.0,SE,15.0,18.4,0.06,Rain,Light Rain,130,2013-02-21 01:53:00
5:53 PM,34.0,34.0,100,29.57,1.5,ESE,17.3,-,0.04,Snow,Light Snow,120,2013-02-21 02:53:00
6:17 PM,35.6,35.6,100,29.56,9.0,SE,16.1,-,0.00,Rain,Light Rain,130,2013-02-21 03:17:00
6:24 PM,35.6,35.6,100,29.55,8.0,SE,16.1,23.0,0.00,Rain,Light Rain,140,2013-02-21 03:24:00
6:53 PM,36.0,36.0,100,29.54,7.0,SE,17.3,24.2,0.04,Rain,Light Rain,140,2013-02-21 03:53:00
7:53 PM,35.1,35.1,100,29.50,3.0,SSE,13.8,21.9,0.08,Snow,Light Snow,150,2013-02-21 04:53:00
8:53 PM,35.1,35.1,100,29.47,4.0,SSE,11.5,19.6,0.11,Snow,Light Snow,150,2013-02-21 05:53:00
9:53 PM,36.0,36.0,100,29.44,7.0,SSE,12.7,24.2,0.10,Rain,Light Rain,150,2013-02-21 06:53:00
10:30 PM,37.4,37.4,100,29.42,8.0,SSE,13.8,23.0,0.04,Rain,Light Rain,150,2013-02-21 07:30:00
10:38 PM,37.4,37.4,100,29.42,8.0,SSE,11.5,20.7,0.05,Rain,Light Rain,150,2013-02-21 07:38:00
10:53 PM,37.0,36.0,96,29.42,6.0,SE,16.1,24.2,0.08,Rain,Rain,140,2013-02-21 07:53:00
11:53 PM,37.0,36.0,96,29.40,10.0,SSE,12.7,-,0.08,Rain,Light Rain,160,2013-02-21 08:53:00